User: anonymous   Login
Location: Unspecified
(0.0000°N, 0.0000°E)
Time: 12:51:10
(UTC+00:00)
Language:

ANTELSAT - Orbit

View from above orbital plane
View from above orbital plane
View from above satellite
View from above satellite

Ground track
Ground track

The orbit data is extracted from the following two-line orbital elements,

1 40034U 14033AA  17229.73072336 +.00000198 +00000-0 +37116-4 0  9994
2 40034 097.8507 111.7293 0060506 094.7194 266.0928 14.73725970169457
Epoch (UTC): 17 August 2017 17:32:14
Eccentricity: 0.0060506
inclination: 97.8507°
perigee height: 606 km
apogee height: 692 km
right ascension of ascending node: 111.7293°
argument of perigee: 94.7194°
revolutions per day: 14.73725970
mean anomaly at epoch: 266.0928°
orbit number at epoch: 16945

The dashed part of the orbit path shows where the satellite is in the earth's shadow,  

DLR